[[{"header":{"parameterUnit":"m.s-1","parameterCategory":1,"la1":30.2992,"la2":30.254,"lo1":-89.0895,"lo2":-89.0443,"dy":0.0025,"dx":0.0025,"nx":19,"ny":19,"refTime":"2026-04-28T03:00:00:Z","depth":0,"parameterNumber":2,"parameterNumberName":"U-component_of_WINDS"},"data":[0,0,0,-2.6549,-2.655,-2.6627,-2.6628,-2.6724,-2.6725,0,0,0,0,0,0,0,0,0,0,0,-2.6524,-2.6525,-2.6549,-2.6551,-2.6627,-2.6628,-2.6724,-2.6725,0,0,0,0,0,0,0,0,0,0,0,-2.6524,-2.6525,-2.6526,-2.6551,-2.6627,-2.6628,-2.6724,-2.6667,0,0,0,0,0,0,0,0,0,0,-2.6592,-2.6568,-2.6525,-2.6526,-2.6551,-2.6627,-2.6628,-2.6664,-2.667,-2.6689,0,-2.6704,0,-2.6716,-2.6731,-2.6732,0,0,0,-2.6552,-2.6563,-2.6585,-2.6526,-2.6552,-2.6627,-2.6593,-2.6667,-2.6675,-2.6697,-2.6705,-2.6709,-2.6718,-2.6732,-2.6732,-2.6832,-2.6833,0,0,-2.6548,-2.6537,-2.658,-2.6589,-2.6577,-2.6591,-2.6595,-2.6672,-2.668,-2.6705,-2.6711,-2.6719,-2.6733,-2.6733,-2.6832,-2.6833,0,0,0,-2.6535,-2.6534,-2.6555,-2.6585,-2.6599,-2.6593,-2.6598,-2.6677,-2.6684,-2.6712,-2.672,-2.6733,-2.6734,-2.6832,-2.6832,-2.6841,0,0,0,-2.6532,-2.6527,-2.6553,-2.6547,-2.6598,-2.6639,-2.6602,-2.6679,-2.6688,-2.672,-2.6733,-2.6735,-2.6831,-2.6832,-2.684,-2.6846,0,0,0,-2.652,-2.6525,-2.6536,-2.6546,-2.6579,-2.6638,-2.665,-2.6681,-2.6693,-2.6732,-2.6735,-2.6831,-2.6832,-2.6839,-2.6845,-2.6869,0,0,0,-2.6504,-2.6543,-2.6536,-2.6582,-2.6578,-2.6643,-2.6649,-2.6698,-2.6733,-2.6734,-2.6831,-2.6832,-2.6838,-2.6844,-2.6868,-2.6886,-2.6893,0,0,-2.6547,-2.6547,-2.6576,-2.6572,-2.6635,-2.6632,-2.6697,-2.6739,-2.6752,-2.6805,-2.6808,-2.684,-2.6844,-2.6868,-2.694,-2.6945,0,0,0,-2.6586,-2.6606,-2.6625,-2.6657,-2.669,-2.6719,-2.6752,-2.6767,-2.6813,-2.6777,-2.6857,-2.686,-2.6874,-2.6883,-2.6888,-2.6901,-2.6836,-2.6836,-2.6836,-2.663,-2.6646,-2.6694,-2.6719,-2.675,-2.6784,-2.6811,-2.6838,-2.6845,-2.6864,-2.6879,-2.692,-2.693,-2.6934,-2.6947,-2.6891,-2.6891,-2.6892,-2.6892,-2.6693,-2.6724,-2.6733,-2.6782,-2.6799,-2.6841,-2.6876,-2.688,-2.6922,-2.691,-2.6923,-2.6907,-2.6939,-2.6952,-2.6892,-2.6892,-2.6892,-2.6892,-2.6892,-2.6722,-2.674,-2.6759,-2.6807,-2.6843,-2.6869,-2.6908,-2.6923,-2.6937,-2.695,-2.6967,-2.6967,-2.6968,-2.6958,-2.6958,-2.6958,-2.6958,-2.6958,-2.6959,-2.6744,-2.6766,-2.6797,-2.6836,-2.6859,-2.6891,-2.6928,-2.6951,-2.698,-2.6988,-2.6988,-2.6992,-2.694,-2.6926,-2.6961,-2.696,-2.696,-2.696,-2.696,-2.6799,-2.679,-2.6838,-2.6861,-2.6908,-2.6943,-2.6962,-2.7009,-2.703,-2.705,-2.7053,-2.7012,-2.7013,-2.701,-2.6998,-2.7049,-2.7049,-2.7049,-2.7049,-2.6823,-2.6826,-2.6878,-2.6914,-2.6951,-2.6974,-2.7028,-2.7058,-2.7087,-2.7101,-2.7097,-2.7083,-2.7079,-2.7083,-2.7077,-2.7066,-2.7134,-2.7134,-2.7134,-2.6857,-2.6864,-2.6907,-2.6935,-2.6974,-2.7007,-2.7059,-2.7101,-2.7132,-2.7138,-2.7113,-2.7109,-2.7087,-2.708,-2.7082,-2.7074,-2.7054,0,0]},{"header":{"parameterUnit":"m.s-1","parameterCategory":1,"la1":30.2992,"la2":30.254,"lo1":-89.0895,"lo2":-89.0443,"dy":0.0025,"dx":0.0025,"nx":19,"ny":19,"refTime":"2026-04-28T03:00:00:Z","depth":0,"parameterNumber":3,"parameterNumberName":"V-component_of_WINDS"},"data":[0,0,0,4.1334,4.1335,4.1374,4.1374,4.1421,4.1421,0,0,0,0,0,0,0,0,0,0,0,4.1321,4.1322,4.1334,4.1335,4.1374,4.1374,4.1421,4.1421,0,0,0,0,0,0,0,0,0,0,0,4.1321,4.1322,4.1322,4.1335,4.1374,4.1374,4.142,4.1392,0,0,0,0,0,0,0,0,0,0,4.1355,4.1342,4.1321,4.1322,4.1336,4.1374,4.1374,4.1391,4.1394,4.1402,0,4.1409,0,4.1416,4.1424,4.1424,0,0,0,4.1336,4.1339,4.1351,4.1322,4.1336,4.1374,4.1357,4.1393,4.1396,4.1406,4.141,4.1411,4.1417,4.1424,4.1424,4.1469,4.1469,0,0,4.1334,4.1327,4.1349,4.1353,4.1347,4.1355,4.1358,4.1395,4.1398,4.141,4.1413,4.1417,4.1425,4.1425,4.1469,4.1469,0,0,0,4.1327,4.1326,4.1337,4.1351,4.1358,4.1357,4.1359,4.1396,4.1401,4.1413,4.1418,4.1425,4.1425,4.1469,4.1469,4.1471,0,0,0,4.1326,4.1322,4.1336,4.1332,4.1358,4.1378,4.136,4.1398,4.1402,4.1418,4.1425,4.1426,4.1469,4.1469,4.1471,4.1473,0,0,0,4.1319,4.1321,4.1326,4.1332,4.1348,4.1377,4.1384,4.1399,4.1405,4.1424,4.1426,4.1469,4.1469,4.147,4.1472,4.1484,0,0,0,4.131,4.1326,4.1326,4.1346,4.1348,4.1379,4.1384,4.1407,4.1423,4.1425,4.1469,4.1469,4.147,4.1472,4.1483,4.1492,4.1495,0,0,4.1327,4.1328,4.1341,4.1342,4.1371,4.1373,4.1403,4.1424,4.1431,4.1456,4.1457,4.1471,4.1472,4.1483,4.1513,4.1516,0,0,0,4.1343,4.1352,4.1362,4.1378,4.1395,4.141,4.1428,4.1436,4.1458,4.1443,4.1478,4.1479,4.1486,4.149,4.1492,4.1499,4.1471,4.1471,4.1471,4.1356,4.1367,4.1389,4.1404,4.1419,4.1438,4.1452,4.1466,4.147,4.1479,4.1486,4.1503,4.1508,4.151,4.1516,4.1491,4.1492,4.1492,4.1492,4.1382,4.1396,4.1404,4.1428,4.1439,4.1459,4.1479,4.1482,4.1502,4.1498,4.1504,4.1499,4.1512,4.1518,4.1492,4.1492,4.1492,4.1492,4.1492,4.1391,4.14,4.1411,4.1436,4.1455,4.147,4.149,4.1499,4.1507,4.1514,4.1523,4.1523,4.1524,4.1518,4.1518,4.1518,4.1518,4.1518,4.1518,4.1397,4.1409,4.1425,4.1446,4.1459,4.1476,4.1497,4.1509,4.1525,4.153,4.153,4.1535,4.1511,4.1505,4.1519,4.1519,4.1519,4.1519,4.1518,4.1418,4.1416,4.144,4.1453,4.148,4.1498,4.151,4.1535,4.1547,4.1557,4.156,4.1541,4.1543,4.1542,4.1537,4.1558,4.1558,4.1558,4.1558,4.1426,4.1429,4.1457,4.1477,4.1498,4.1512,4.154,4.1557,4.1573,4.1582,4.158,4.1574,4.1572,4.1575,4.1573,4.1569,4.1597,4.1597,4.1597,4.1441,4.1446,4.1468,4.1485,4.1508,4.1527,4.1554,4.1577,4.1595,4.1599,4.1588,4.1587,4.1578,4.1574,4.1577,4.1573,4.1565,0,0]}]]